^^
Datos históricos de la estación: Murcia-Puente Tocinos
Diario Informe para Mayo 13, 2019 Unidades:  Métrico    Inglés   Ambas
Diario Semanal Mensual Anual Configurable
  Máximo: Mínimo: Media:
Temperatura: 24.2 °C 14.9 °C 18.9 °C
Punto de rocio: 14.9 °C 9.9 °C 12.2 °C
Humedad: 89% 41% 67%
Velocidad viento: 16.1km/h 0.0km/h 6.8km/h
Racha viento: 25.7km/h - -
Viento- - ENE
Presión: 1019.6 hPa 1015.5 hPa -
Precipitación: 0.0 mm    
Historical Graphs
 
 
Tabla de datos para Mayo 13, 2019
Hora Temperatura Punto de rocio Presión Viento Velocidad viento Racha viento Humedad Intensidad lluvia(por hora) Nubes
00:00 18.8 °C 12.8 °C 1018.7 hPa ESE 8.0 km/h 11.3 km/h 68% 0.0 mm CLR
00:05 18.8 °C 12.8 °C 1018.8 hPa SE 6.4 km/h 7.4 km/h 68% 0.0 mm CLR
00:10 18.9 °C 12.9 °C 1018.8 hPa ESE 3.9 km/h 6.9 km/h 68% 0.0 mm CLR
00:15 18.8 °C 13.0 °C 1018.8 hPa East 3.9 km/h 5.6 km/h 69% 0.0 mm CLR
00:20 18.7 °C 12.9 °C 1018.8 hPa East 3.9 km/h 7.4 km/h 69% 0.0 mm CLR
00:25 18.6 °C 13.0 °C 1018.8 hPa ENE 3.9 km/h 5.8 km/h 70% 0.0 mm CLR
00:30 18.4 °C 12.8 °C 1018.8 hPa NE 3.9 km/h 7.6 km/h 70% 0.0 mm CLR
00:35 18.2 °C 12.8 °C 1018.8 hPa NE 3.9 km/h 7.4 km/h 71% 0.0 mm CLR
00:40 18.1 °C 12.8 °C 1018.8 hPa NE 5.8 km/h 7.4 km/h 71% 0.0 mm CLR
00:45 17.9 °C 12.8 °C 1018.8 hPa NE 5.8 km/h 7.4 km/h 72% 0.0 mm CLR
00:50 17.9 °C 12.8 °C 1018.8 hPa NE 5.8 km/h 8.4 km/h 72% 0.0 mm CLR
00:55 17.8 °C 12.7 °C 1018.8 hPa NE 5.8 km/h 7.4 km/h 72% 0.0 mm CLR
01:00 17.8 °C 12.4 °C 1018.8 hPa NE 8.0 km/h 9.7 km/h 71% 0.0 mm CLR
01:04 17.8 °C 12.4 °C 1019.1 hPa NE 6.4 km/h 11.1 km/h 71% 0.0 mm CLR
01:09 17.7 °C 12.6 °C 1019.1 hPa NNE 7.6 km/h 7.4 km/h 72% 0.0 mm CLR
01:14 17.6 °C 12.9 °C 1019.1 hPa NE 7.6 km/h 9.3 km/h 74% 0.0 mm CLR
01:19 17.4 °C 12.9 °C 1019.1 hPa NE 7.6 km/h 13.0 km/h 75% 0.0 mm CLR
01:24 17.3 °C 13.0 °C 1019.1 hPa NNE 7.6 km/h 11.1 km/h 76% 0.0 mm CLR
01:29 17.2 °C 12.9 °C 1019.1 hPa NNE 7.6 km/h 9.5 km/h 76% 0.0 mm CLR
01:34 17.2 °C 12.9 °C 1019.1 hPa NNE 7.6 km/h 11.1 km/h 76% 0.0 mm CLR
01:39 17.1 °C 13.1 °C 1019.1 hPa NE 7.6 km/h 9.3 km/h 77% 0.0 mm CLR
01:44 17.0 °C 12.9 °C 1019.1 hPa NE 7.6 km/h 11.1 km/h 77% 0.0 mm CLR
01:49 16.9 °C 13.1 °C 1019.1 hPa NNE 7.6 km/h 11.1 km/h 78% 0.0 mm CLR
01:54 16.8 °C 12.9 °C 1019.1 hPa NE 7.6 km/h 11.1 km/h 78% 0.0 mm CLR
01:59 16.7 °C 12.8 °C 1019.1 hPa NNE 6.9 km/h 9.3 km/h 78% 0.0 mm CLR
02:04 16.6 °C 12.9 °C 1018.9 hPa NE 6.9 km/h 9.3 km/h 79% 0.0 mm CLR
02:09 16.6 °C 12.9 °C 1018.9 hPa North 6.4 km/h 7.4 km/h 79% 0.0 mm CLR
02:14 16.6 °C 12.9 °C 1018.9 hPa North 6.4 km/h 3.7 km/h 79% 0.0 mm CLR
02:19 16.6 °C 12.9 °C 1018.8 hPa North 2.9 km/h 7.4 km/h 79% 0.0 mm CLR
02:24 16.6 °C 12.9 °C 1018.8 hPa ENE 2.9 km/h 7.4 km/h 79% 0.0 mm CLR
02:29 16.4 °C 12.9 °C 1018.8 hPa NE 3.9 km/h 5.6 km/h 80% 0.0 mm CLR
02:34 16.4 °C 13.1 °C 1018.7 hPa NE 3.9 km/h 7.4 km/h 81% 0.0 mm CLR
02:39 16.4 °C 13.1 °C 1018.7 hPa NE 4.7 km/h 7.4 km/h 81% 0.0 mm CLR
02:44 16.4 °C 13.3 °C 1018.7 hPa NE 4.7 km/h 9.3 km/h 82% 0.0 mm CLR
02:49 16.3 °C 13.2 °C 1018.6 hPa NE 5.0 km/h 7.6 km/h 82% 0.0 mm CLR
02:54 16.2 °C 13.1 °C 1018.6 hPa NE 5.0 km/h 11.1 km/h 82% 0.0 mm CLR
02:59 16.2 °C 13.3 °C 1018.6 hPa NE 6.9 km/h 11.1 km/h 83% 0.0 mm CLR
03:04 16.1 °C 13.2 °C 1018.6 hPa NNE 6.9 km/h 9.3 km/h 83% 0.0 mm CLR
03:09 16.2 °C 13.3 °C 1018.6 hPa NNE 6.4 km/h 7.4 km/h 83% 0.0 mm CLR
03:14 16.2 °C 13.3 °C 1018.6 hPa ENE 6.4 km/h 7.4 km/h 83% 0.0 mm CLR
03:19 16.2 °C 13.3 °C 1018.5 hPa NE 4.7 km/h 9.3 km/h 83% 0.0 mm CLR
03:24 16.1 °C 13.4 °C 1018.5 hPa NE 4.7 km/h 9.3 km/h 84% 0.0 mm CLR
03:29 16.1 °C 13.4 °C 1018.5 hPa NE 6.4 km/h 7.4 km/h 84% 0.0 mm CLR
03:34 16.1 °C 13.4 °C 1018.4 hPa NE 6.4 km/h   84% 0.0 mm CLR
03:39 16.1 °C 13.4 °C 1018.4 hPa NNE 3.2 km/h 7.4 km/h 84% 0.0 mm CLR
03:44 16.1 °C 13.4 °C 1018.4 hPa East 3.2 km/h 3.7 km/h 84% 0.0 mm CLR
03:49 16.1 °C 13.4 °C 1018.5 hPa NE 2.3 km/h 4.7 km/h 84% 0.0 mm CLR
03:54 16.0 °C 13.3 °C 1018.5 hPa NNE 2.3 km/h 7.6 km/h 84% 0.0 mm CLR
03:59 15.9 °C 13.4 °C 1018.5 hPa ENE 4.7 km/h 7.4 km/h 85% 0.0 mm CLR
04:04 15.9 °C 13.4 °C 1018.4 hPa NE 4.7 km/h 9.3 km/h 85% 0.0 mm CLR
04:09 15.8 °C 13.3 °C 1018.4 hPa NE 5.0 km/h 5.6 km/h 85% 0.0 mm CLR
04:14 15.7 °C 13.2 °C 1018.4 hPa NE 5.0 km/h 3.7 km/h 85% 0.0 mm CLR
04:19 15.8 °C 13.1 °C 1018.3 hPa East 2.9 km/h 5.0 km/h 84% 0.0 mm CLR
04:24 15.7 °C 12.8 °C 1018.3 hPa East 2.9 km/h 7.4 km/h 83% 0.0 mm CLR
04:29 15.6 °C 12.3 °C 1018.3 hPa East 3.2 km/h 5.6 km/h 81% 0.0 mm CLR
04:34 15.4 °C 11.8 °C 1018.4 hPa East 3.2 km/h 3.7 km/h 79% 0.0 mm CLR
04:39 15.4 °C 11.6 °C 1018.4 hPa East 3.2 km/h 5.6 km/h 78% 0.0 mm CLR
04:44 15.4 °C 11.6 °C 1018.4 hPa East 3.2 km/h   78% 0.0 mm CLR
04:49 15.4 °C 11.4 °C 1018.4 hPa NE 2.3 km/h 5.6 km/h 77% 0.0 mm CLR
04:54 15.5 °C 11.7 °C 1018.4 hPa NE 2.3 km/h 3.7 km/h 78% 0.0 mm CLR
04:59 15.6 °C 11.8 °C 1018.4 hPa NE 3.9 km/h 5.6 km/h 78% 0.0 mm CLR
05:04 15.6 °C 11.6 °C 1018.4 hPa NE 3.9 km/h 5.0 km/h 77% 0.0 mm CLR
05:09 15.5 °C 11.7 °C 1018.4 hPa ENE 3.2 km/h 7.4 km/h 78% 0.0 mm CLR
05:14 15.4 °C 11.6 °C 1018.4 hPa ENE 3.2 km/h 7.4 km/h 78% 0.0 mm CLR
05:19 15.3 °C 11.1 °C 1018.5 hPa ENE 3.9 km/h 6.4 km/h 76% 0.0 mm CLR
05:24 15.2 °C 11.0 °C 1018.5 hPa NNE 3.9 km/h 4.7 km/h 76% 0.0 mm CLR
05:29 15.2 °C 11.0 °C 1018.5 hPa NE 3.2 km/h 5.6 km/h 76% 0.0 mm CLR
05:34 15.3 °C 11.3 °C 1018.6 hPa NE 3.2 km/h 7.4 km/h 77% 0.0 mm CLR
05:39 15.3 °C 11.3 °C 1018.6 hPa ENE 4.7 km/h 3.7 km/h 77% 0.0 mm CLR
05:44 15.3 °C 11.1 °C 1018.6 hPa ENE 4.7 km/h   76% 0.0 mm CLR
05:49 15.3 °C 11.5 °C 1018.7 hPa NNE 2.3 km/h 4.7 km/h 78% 0.0 mm CLR
05:54 15.2 °C 11.4 °C 1018.7 hPa NNE 2.3 km/h 5.6 km/h 78% 0.0 mm CLR
05:59 15.1 °C 11.3 °C 1018.7 hPa NNE 3.2 km/h 3.7 km/h 78% 0.0 mm CLR
06:04 15.0 °C 11.4 °C 1018.7 hPa NNE 3.2 km/h 5.6 km/h 79% 0.0 mm CLR
06:09 15.1 °C 11.9 °C 1018.7 hPa NE 2.3 km/h 5.6 km/h 81% 0.0 mm CLR
06:14 15.1 °C 11.9 °C 1018.7 hPa ENE 2.3 km/h 7.4 km/h 81% 0.0 mm CLR
06:19 15.0 °C 11.6 °C 1018.7 hPa NNE 3.2 km/h   80% 0.0 mm CLR
06:24 15.0 °C 11.9 °C 1018.7 hPa NNE 3.2 km/h 5.6 km/h 82% 0.0 mm CLR
06:29 15.0 °C 11.9 °C 1018.7 hPa Calm   3.7 km/h 82% 0.0 mm CLR
06:34 15.0 °C 11.9 °C 1018.7 hPa Calm   1.9 km/h 82% 0.0 mm CLR
06:39 14.9 °C 12.1 °C 1018.7 hPa Calm     83% 0.0 mm CLR
06:44 14.9 °C 12.2 °C 1018.7 hPa Calm   5.6 km/h 84% 0.0 mm CLR
06:49 14.9 °C 12.2 °C 1018.8 hPa Calm     84% 0.0 mm CLR
06:54 14.9 °C 12.4 °C 1018.8 hPa Calm     85% 0.0 mm CLR
06:59 14.9 °C 12.4 °C 1018.8 hPa Calm   3.9 km/h 85% 0.0 mm CLR
07:04 15.0 °C 12.7 °C 1019.0 hPa Calm   5.6 km/h 86% 0.0 mm CLR
07:09 15.1 °C 12.9 °C 1019.0 hPa NE 3.9 km/h 7.4 km/h 87% 0.0 mm CLR
07:14 15.1 °C 12.9 °C 1019.0 hPa NE 3.9 km/h 7.4 km/h 87% 0.0 mm CLR
07:19 15.1 °C 13.1 °C 1019.0 hPa NE 3.9 km/h 5.6 km/h 88% 0.0 mm CLR
07:24 15.1 °C 13.1 °C 1019.0 hPa NE 3.9 km/h 5.6 km/h 88% 0.0 mm CLR
07:29 15.1 °C 13.1 °C 1019.0 hPa NE 3.2 km/h 5.6 km/h 88% 0.0 mm CLR
07:34 15.2 °C 13.4 °C 1019.0 hPa NE 3.2 km/h 5.6 km/h 89% 0.0 mm CLR
07:39 15.2 °C 13.4 °C 1019.0 hPa NE 3.9 km/h 3.7 km/h 89% 0.0 mm CLR
07:44 15.3 °C 13.3 °C 1019.0 hPa East 3.9 km/h 5.6 km/h 88% 0.0 mm CLR
07:49 15.4 °C 13.4 °C 1019.2 hPa Calm     88% 0.0 mm CLR
07:54 15.6 °C 13.6 °C 1019.2 hPa Calm   5.0 km/h 88% 0.0 mm CLR
07:59 15.7 °C 13.6 °C 1019.2 hPa North 2.3 km/h 3.7 km/h 87% 0.0 mm CLR
08:04 15.8 °C 13.7 °C 1019.2 hPa North 2.3 km/h 3.7 km/h 87% 0.0 mm CLR
08:09 16.0 °C 13.7 °C 1019.2 hPa Calm   3.9 km/h 86% 0.0 mm CLR
08:14 16.2 °C 13.8 °C 1019.2 hPa Calm   3.7 km/h 86% 0.0 mm CLR
08:19 16.3 °C 13.8 °C 1019.2 hPa Calm   5.6 km/h 85% 0.0 mm CLR
08:24 16.5 °C 13.9 °C 1019.2 hPa Calm   1.9 km/h 85% 0.0 mm CLR
08:29 16.6 °C 14.1 °C 1019.2 hPa Calm     85% 0.0 mm CLR
08:34 16.9 °C 14.3 °C 1019.2 hPa Calm   3.7 km/h 85% 0.0 mm CLR
08:39 17.2 °C 14.3 °C 1019.2 hPa Calm   4.7 km/h 83% 0.0 mm CLR
08:44 17.4 °C 14.5 °C 1019.2 hPa Calm   5.6 km/h 83% 0.0 mm CLR
08:49 17.6 °C 14.5 °C 1019.2 hPa NE 2.9 km/h 7.4 km/h 82% 0.0 mm CLR
08:54 17.6 °C 14.5 °C 1019.2 hPa ENE 2.9 km/h 7.4 km/h 82% 0.0 mm CLR
08:59 17.6 °C 14.5 °C 1019.2 hPa ENE 3.9 km/h 5.6 km/h 82% 0.0 mm CLR
09:04 17.8 °C 14.7 °C 1019.2 hPa East 3.9 km/h 7.4 km/h 82% 0.0 mm CLR
09:09 18.0 °C 14.7 °C 1019.2 hPa ENE 2.9 km/h 7.4 km/h 81% 0.0 mm CLR
09:14 18.2 °C 14.7 °C 1019.2 hPa North 2.9 km/h 8.7 km/h 80% 0.0 mm CLR
09:19 18.2 °C 14.9 °C 1019.3 hPa NE 5.0 km/h 7.4 km/h 81% 0.0 mm CLR
09:24 18.4 °C 14.7 °C 1019.3 hPa East 5.0 km/h 7.4 km/h 79% 0.0 mm CLR
09:29 18.6 °C 14.7 °C 1019.3 hPa NE 3.9 km/h 6.9 km/h 78% 0.0 mm CLR
09:34 18.8 °C 14.7 °C 1019.1 hPa NE 3.9 km/h 7.4 km/h 77% 0.0 mm CLR
09:39 18.6 °C 14.5 °C 1019.1 hPa NNE 4.7 km/h 7.4 km/h 77% 0.0 mm CLR
09:45 18.4 °C 14.5 °C 1019.1 hPa ENE 4.7 km/h 5.6 km/h 78% 0.0 mm CLR
09:49 18.3 °C 14.2 °C 1019.2 hPa NE 4.7 km/h 7.4 km/h 77% 0.0 mm CLR
09:54 18.2 °C 14.1 °C 1019.2 hPa ENE 4.7 km/h 9.3 km/h 77% 0.0 mm CLR
09:59 18.2 °C 14.1 °C 1019.2 hPa East 5.0 km/h 6.4 km/h 77% 0.0 mm CLR
10:04 18.2 °C 14.1 °C 1019.1 hPa NE 5.0 km/h 7.4 km/h 77% 0.0 mm CLR
10:09 18.3 °C 14.2 °C 1019.1 hPa ENE 2.9 km/h 7.4 km/h 77% 0.0 mm CLR
10:14 18.4 °C 13.9 °C 1019.1 hPa NNE 2.9 km/h 8.7 km/h 75% 0.0 mm CLR
10:19 18.4 °C 13.4 °C 1019.0 hPa ENE 4.7 km/h 9.3 km/h 73% 0.0 mm CLR
10:24 18.4 °C 13.4 °C 1019.0 hPa NE 4.7 km/h 3.7 km/h 73% 0.0 mm CLR
10:29 18.5 °C 13.8 °C 1019.0 hPa ENE 3.2 km/h 9.5 km/h 74% 0.0 mm CLR
10:34 18.5 °C 13.3 °C 1019.0 hPa NE 3.2 km/h 8.4 km/h 72% 0.0 mm CLR
10:39 18.6 °C 13.7 °C 1019.0 hPa NNE 5.8 km/h 9.5 km/h 73% 0.0 mm CLR
10:45 18.6 °C 14.1 °C 1019.0 hPa NNE 5.8 km/h 11.1 km/h 75% 0.0 mm CLR
10:49 18.5 °C 13.8 °C 1019.0 hPa NE 8.4 km/h 11.1 km/h 74% 0.0 mm CLR
10:54 18.4 °C 13.7 °C 1019.0 hPa ENE 8.4 km/h 9.3 km/h 74% 0.0 mm CLR
10:59 18.4 °C 13.7 °C 1019.0 hPa East 6.4 km/h 5.8 km/h 74% 0.0 mm CLR
11:04 18.6 °C 13.2 °C 1019.0 hPa NE 6.4 km/h 13.0 km/h 71% 0.0 mm CLR
11:09 18.8 °C 13.4 °C 1019.0 hPa ESE 5.8 km/h 5.6 km/h 71% 0.0 mm CLR
11:15 18.9 °C 13.1 °C 1019.0 hPa NE 5.8 km/h 10.0 km/h 69% 0.0 mm CLR
11:19 19.0 °C 12.7 °C 1018.9 hPa NE 5.0 km/h 13.0 km/h 67% 0.0 mm CLR
11:25 19.1 °C 12.8 °C 1018.9 hPa ENE 5.0 km/h 9.3 km/h 67% 0.0 mm CLR
11:29 19.1 °C 12.6 °C 1018.9 hPa ENE 7.6 km/h 11.1 km/h 66% 0.0 mm CLR
11:34 19.1 °C 12.6 °C 1018.9 hPa ENE 7.6 km/h 14.8 km/h 66% 0.0 mm CLR
11:39 19.1 °C 12.4 °C 1018.9 hPa ESE 8.4 km/h 14.8 km/h 65% 0.0 mm CLR
11:44 19.1 °C 12.4 °C 1018.9 hPa ESE 8.4 km/h 11.1 km/h 65% 0.0 mm CLR
11:49 19.2 °C 12.2 °C 1018.9 hPa ESE 8.4 km/h 11.1 km/h 64% 0.0 mm CLR
11:54 19.3 °C 12.3 °C 1018.9 hPa ESE 8.4 km/h 8.7 km/h 64% 0.0 mm CLR
11:59 19.2 °C 12.2 °C 1018.9 hPa ESE 7.6 km/h 11.1 km/h 64% 0.0 mm CLR
12:04 19.3 °C 12.3 °C 1018.8 hPa ESE 7.6 km/h 13.0 km/h 64% 0.0 mm CLR
12:09 19.3 °C 12.1 °C 1018.8 hPa ENE 8.4 km/h 11.1 km/h 63% 0.0 mm CLR
12:14 19.2 °C 12.0 °C 1018.8 hPa East 8.4 km/h 16.7 km/h 63% 0.0 mm CLR
12:19 19.2 °C 11.7 °C 1018.6 hPa ENE 9.5 km/h 14.8 km/h 62% 0.0 mm CLR
12:24 19.3 °C 11.8 °C 1018.6 hPa SSE 9.5 km/h 13.0 km/h 62% 0.0 mm CLR
12:29 19.4 °C 11.7 °C 1018.6 hPa South 8.7 km/h 9.3 km/h 61% 0.0 mm CLR
12:34 19.6 °C 11.9 °C 1018.5 hPa SSE 8.7 km/h 13.0 km/h 61% 0.0 mm CLR
12:39 19.6 °C 11.9 °C 1018.5 hPa SSE 8.4 km/h 11.1 km/h 61% 0.0 mm CLR
12:44 19.7 °C 11.9 °C 1018.5 hPa ESE 8.4 km/h 7.4 km/h 61% 0.0 mm CLR
12:49 19.9 °C 12.2 °C 1018.3 hPa ESE 6.9 km/h 13.0 km/h 61% 0.0 mm CLR
12:54 20.1 °C 12.1 °C 1018.3 hPa East 6.9 km/h 13.0 km/h 60% 0.0 mm CLR
12:59 20.2 °C 12.2 °C 1018.3 hPa South 9.5 km/h 16.7 km/h 60% 0.0 mm CLR
13:04 20.2 °C 12.2 °C 1018.1 hPa ESE 9.5 km/h 11.1 km/h 60% 0.0 mm CLR
13:09 20.2 °C 11.9 °C 1018.1 hPa SSE 8.7 km/h 16.7 km/h 59% 0.0 mm CLR
13:14 20.1 °C 11.8 °C 1018.1 hPa SSW 8.7 km/h 11.1 km/h 59% 0.0 mm CLR
13:19 20.4 °C 12.1 °C 1017.9 hPa ESE 9.5 km/h 16.7 km/h 59% 0.0 mm CLR
13:25 20.5 °C 11.9 °C 1017.9 hPa SSE 9.7 km/h 14.5 km/h 58% 0.0 mm CLR
13:29 20.6 °C 11.8 °C 1017.9 hPa NNE 8.4 km/h 11.1 km/h 57% 0.0 mm CLR
13:34 20.5 °C 11.9 °C 1017.7 hPa ESE 8.4 km/h 18.0 km/h 58% 0.0 mm CLR
13:39 20.8 °C 12.2 °C 1017.7 hPa ESE 8.7 km/h 18.0 km/h 58% 0.0 mm CLR
13:44 21.1 °C 12.0 °C 1017.7 hPa ESE 8.7 km/h 14.8 km/h 56% 0.0 mm CLR
13:49 21.1 °C 12.2 °C 1017.4 hPa East 8.4 km/h 14.8 km/h 57% 0.0 mm CLR
13:54 21.2 °C 12.1 °C 1017.4 hPa West 8.4 km/h 13.0 km/h 56% 0.0 mm CLR
13:59 21.2 °C 12.1 °C 1017.4 hPa NNE 8.7 km/h 16.7 km/h 56% 0.0 mm CLR
14:04 20.9 °C 11.8 °C 1017.4 hPa East 8.7 km/h 13.0 km/h 56% 0.0 mm CLR
14:09 21.0 °C 11.6 °C 1017.4 hPa West 8.4 km/h 13.0 km/h 55% 0.0 mm CLR
14:14 21.4 °C 12.3 °C 1017.4 hPa East 8.4 km/h 8.7 km/h 56% 0.0 mm CLR
14:19 21.8 °C 12.1 °C 1017.1 hPa NE 7.6 km/h 9.3 km/h 54% 0.0 mm CLR
14:25 22.1 °C 12.3 °C 1017.1 hPa East 8.0 km/h 12.9 km/h 54% 0.0 mm CLR
14:29 22.1 °C 12.1 °C 1017.1 hPa East 6.9 km/h 13.0 km/h 53% 0.0 mm CLR
14:34 22.2 °C 11.9 °C 1017.0 hPa ENE 6.9 km/h 14.8 km/h 52% 0.0 mm CLR
14:39 21.9 °C 11.6 °C 1017.0 hPa NW 8.4 km/h 9.5 km/h 52% 0.0 mm CLR
14:45 21.9 °C 11.6 °C 1017.0 hPa North 8.0 km/h 16.1 km/h 52% 0.0 mm CLR
14:49 22.2 °C 11.6 °C 1016.8 hPa NNE 6.9 km/h 11.1 km/h 51% 0.0 mm CLR
14:55 22.2 °C 11.6 °C 1016.8 hPa NE 6.9 km/h 11.1 km/h 51% 0.0 mm CLR
14:59 22.5 °C 11.6 °C 1016.8 hPa NE 7.6 km/h 11.1 km/h 50% 0.0 mm CLR
15:04 22.4 °C 11.4 °C 1016.5 hPa ENE 7.6 km/h 11.9 km/h 50% 0.0 mm CLR
15:09 22.5 °C 11.2 °C 1016.5 hPa NE 10.0 km/h 13.0 km/h 49% 0.0 mm CLR
15:14 22.6 °C 11.3 °C 1016.5 hPa ESE 10.0 km/h 14.8 km/h 49% 0.0 mm CLR
15:19 22.7 °C 10.8 °C 1016.5 hPa ESE 7.6 km/h 11.1 km/h 47% 0.0 mm CLR
15:24 22.8 °C 11.2 °C 1016.5 hPa East 7.6 km/h 16.7 km/h 48% 0.0 mm CLR
15:29 22.9 °C 11.3 °C 1016.5 hPa NE 10.0 km/h 20.9 km/h 48% 0.0 mm CLR
15:34 23.0 °C 11.1 °C 1016.3 hPa NE 10.0 km/h 13.0 km/h 47% 0.0 mm CLR
15:39 23.2 °C 10.9 °C 1016.3 hPa NNE 8.4 km/h 7.6 km/h 46% 0.0 mm CLR
15:44 23.3 °C 10.7 °C 1016.3 hPa ENE 8.4 km/h 18.5 km/h 45% 0.0 mm CLR
15:49 23.2 °C 10.6 °C 1016.2 hPa NE 10.0 km/h 18.3 km/h 45% 0.0 mm CLR
15:55 23.3 °C 10.7 °C 1016.2 hPa NE 9.7 km/h 20.9 km/h 45% 0.0 mm CLR
15:59 23.3 °C 10.3 °C 1016.2 hPa SSE 11.9 km/h 13.0 km/h 44% 0.0 mm CLR
16:05 23.3 °C 10.3 °C 1016.2 hPa ENE 11.3 km/h 22.5 km/h 44% 0.0 mm CLR
16:09 23.4 °C 10.1 °C 1016.2 hPa ENE 7.6 km/h 22.2 km/h 43% 0.0 mm CLR
16:14 23.5 °C 10.2 °C 1016.2 hPa ENE 7.6 km/h 18.5 km/h 43% 0.0 mm CLR
16:19 23.6 °C 10.3 °C 1016.0 hPa SE 11.1 km/h 14.8 km/h 43% 0.0 mm CLR
16:24 23.5 °C 10.2 °C 1016.0 hPa NE 11.1 km/h 11.1 km/h 43% 0.0 mm CLR
16:29 23.6 °C 9.9 °C 1016.0 hPa WNW 7.6 km/h 9.3 km/h 42% 0.0 mm CLR
16:34 23.8 °C 10.1 °C 1015.8 hPa NE 7.6 km/h 5.8 km/h 42% 0.0 mm CLR
16:39 24.1 °C 10.0 °C 1015.8 hPa ENE 4.7 km/h 7.4 km/h 41% 0.0 mm CLR
16:45 24.2 °C 10.1 °C 1015.8 hPa ENE 3.2 km/h 20.9 km/h 41% 0.0 mm CLR
16:49 23.9 °C 10.2 °C 1015.6 hPa NE 11.1 km/h 16.7 km/h 42% 0.0 mm CLR
16:54 23.9 °C 10.6 °C 1015.6 hPa ENE 11.1 km/h 18.5 km/h 43% 0.0 mm CLR
16:59 24.1 °C 10.7 °C 1015.6 hPa ENE 11.1 km/h 16.7 km/h 43% 0.0 mm CLR
17:05 24.1 °C 11.1 °C 1015.5 hPa East 11.3 km/h 20.9 km/h 44% 0.0 mm CLR
17:09 23.9 °C 10.9 °C 1015.5 hPa SE 11.1 km/h 14.8 km/h 44% 0.0 mm CLR
17:15 23.9 °C 11.2 °C 1015.5 hPa SE 11.1 km/h 22.2 km/h 45% 0.0 mm CLR
17:19 23.8 °C 11.5 °C 1015.6 hPa ESE 11.9 km/h 20.4 km/h 46% 0.0 mm CLR
17:25 23.8 °C 11.2 °C 1015.6 hPa ESE 11.3 km/h 19.3 km/h 45% 0.0 mm CLR
17:29 23.8 °C 11.2 °C 1015.6 hPa SE 12.2 km/h 20.4 km/h 45% 0.0 mm CLR
17:35 23.6 °C 11.3 °C 1015.6 hPa SE 12.9 km/h 22.5 km/h 46% 0.0 mm CLR
17:39 23.5 °C 11.2 °C 1015.6 hPa SE 13.7 km/h 20.4 km/h 46% 0.0 mm CLR
17:44 23.7 °C 11.4 °C 1015.6 hPa SE 13.7 km/h 16.7 km/h 46% 0.0 mm CLR
17:49 23.9 °C 11.2 °C 1015.7 hPa ESE 11.1 km/h 18.5 km/h 45% 0.0 mm CLR
17:55 23.8 °C 11.2 °C 1015.7 hPa ESE 11.3 km/h 19.3 km/h 45% 0.0 mm CLR
18:00 23.7 °C 11.1 °C 1015.7 hPa ESE 11.3 km/h 19.3 km/h 45% 0.0 mm CLR
18:04 23.4 °C 10.8 °C 1015.8 hPa ESE 11.1 km/h 20.4 km/h 45% 0.0 mm CLR
18:09 23.4 °C 10.8 °C 1015.8 hPa ESE 12.2 km/h 14.0 km/h 45% 0.0 mm CLR
18:15 23.3 °C 10.7 °C 1015.8 hPa ESE 12.9 km/h 20.9 km/h 45% 0.0 mm CLR
18:19 23.1 °C 10.8 °C 1016.0 hPa ESE 11.9 km/h 22.2 km/h 46% 0.0 mm CLR
18:25 22.9 °C 10.7 °C 1016.0 hPa ESE 11.3 km/h 22.5 km/h 46% 0.0 mm CLR
18:29 22.8 °C 10.9 °C 1016.0 hPa East 14.0 km/h 20.9 km/h 47% 0.0 mm CLR
18:35 22.8 °C 10.9 °C 1016.3 hPa ESE 14.5 km/h 19.3 km/h 47% 0.0 mm CLR
18:39 23.0 °C 11.1 °C 1016.3 hPa East 11.1 km/h 12.2 km/h 47% 0.0 mm CLR
18:44 22.8 °C 11.2 °C 1016.3 hPa NE 11.1 km/h 20.4 km/h 48% 0.0 mm CLR
18:49 22.4 °C 11.2 °C 1016.4 hPa East 11.9 km/h 20.4 km/h 49% 0.0 mm CLR
18:55 22.2 °C 10.9 °C 1016.4 hPa NE 11.3 km/h 25.7 km/h 49% 0.0 mm CLR
19:00 21.9 °C 11.0 °C 1016.4 hPa NE 16.1 km/h 24.1 km/h 50% 0.0 mm CLR
19:05 21.9 °C 11.0 °C 1016.5 hPa NE 16.1 km/h 24.1 km/h 50% 0.0 mm CLR
19:09 21.8 °C 10.9 °C 1016.5 hPa NNE 14.0 km/h 22.2 km/h 50% 0.0 mm CLR
19:15 21.7 °C 11.1 °C 1016.5 hPa ENE 14.5 km/h 25.7 km/h 51% 0.0 mm CLR
19:19 21.8 °C 11.5 °C 1016.6 hPa ENE 11.9 km/h 18.5 km/h 52% 0.0 mm CLR
19:24 21.8 °C 11.2 °C 1016.6 hPa ENE 11.9 km/h 22.2 km/h 51% 0.0 mm CLR
19:29 21.6 °C 11.3 °C 1016.6 hPa NNE 11.9 km/h 14.8 km/h 52% 0.0 mm CLR
19:35 21.4 °C 11.2 °C 1016.8 hPa ENE 11.3 km/h 20.9 km/h 52% 0.0 mm CLR
19:39 21.3 °C 11.1 °C 1016.8 hPa NE 11.1 km/h 18.5 km/h 52% 0.0 mm CLR
19:45 21.2 °C 11.2 °C 1016.8 hPa ENE 11.1 km/h 20.4 km/h 53% 0.0 mm CLR
19:49 21.1 °C 11.4 °C 1017.0 hPa ENE 11.9 km/h 18.5 km/h 54% 0.0 mm CLR
19:55 20.9 °C 11.2 °C 1017.0 hPa ENE 11.9 km/h 16.7 km/h 54% 0.0 mm CLR
19:59 20.9 °C 11.5 °C 1017.0 hPa ENE 10.3 km/h 24.1 km/h 55% 0.0 mm CLR
20:05 20.7 °C 11.6 °C 1017.2 hPa NE 11.3 km/h 22.5 km/h 56% 0.0 mm CLR
20:09 20.6 °C 11.8 °C 1017.2 hPa NE 13.7 km/h 19.8 km/h 57% 0.0 mm CLR
20:15 20.5 °C 11.7 °C 1017.2 hPa NNE 13.7 km/h 16.7 km/h 57% 0.0 mm CLR
20:19 20.4 °C 11.8 °C 1017.3 hPa ENE 11.1 km/h 16.1 km/h 58% 0.0 mm CLR
20:25 20.2 °C 11.7 °C 1017.3 hPa East 11.1 km/h 16.7 km/h 58% 0.0 mm CLR
20:29 20.1 °C 11.8 °C 1017.3 hPa ENE 11.9 km/h 20.9 km/h 59% 0.0 mm CLR
20:35 20.0 °C 11.7 °C 1017.5 hPa ENE 11.3 km/h 22.5 km/h 59% 0.0 mm CLR
20:39 19.9 °C 11.7 °C 1017.5 hPa NE 8.7 km/h 11.1 km/h 59% 0.0 mm CLR
20:45 19.8 °C 11.6 °C 1017.5 hPa ENE 8.7 km/h 14.8 km/h 59% 0.0 mm CLR
20:49 19.7 °C 11.7 °C 1017.6 hPa NNE 8.7 km/h 18.3 km/h 60% 0.0 mm CLR
20:55 19.6 °C 11.6 °C 1017.6 hPa NE 9.7 km/h 19.3 km/h 60% 0.0 mm CLR
20:59 19.4 °C 11.7 °C 1017.6 hPa NE 10.0 km/h 13.0 km/h 61% 0.0 mm CLR
21:05 19.2 °C 11.6 °C 1017.8 hPa NE 9.7 km/h 19.3 km/h 61% 0.0 mm CLR
21:09 19.1 °C 11.7 °C 1017.8 hPa ENE 11.9 km/h 20.4 km/h 62% 0.0 mm CLR
21:15 19.1 °C 11.6 °C 1017.8 hPa NE 11.3 km/h 20.9 km/h 62% 0.0 mm CLR
21:19 18.9 °C 11.4 °C 1018.2 hPa NE 11.9 km/h 18.5 km/h 62% 0.0 mm CLR
21:25 18.8 °C 11.6 °C 1018.2 hPa ENE 11.9 km/h 11.1 km/h 63% 0.0 mm CLR
21:29 18.8 °C 11.6 °C 1018.2 hPa NE 9.5 km/h 14.8 km/h 63% 0.0 mm CLR
21:35 18.7 °C 11.5 °C 1018.4 hPa ENE 9.7 km/h 9.7 km/h 63% 0.0 mm CLR
21:39 18.7 °C 11.5 °C 1018.4 hPa SE 5.0 km/h 11.1 km/h 63% 0.0 mm CLR
21:45 18.6 °C 11.7 °C 1018.4 hPa East 4.8 km/h 8.0 km/h 64% 0.0 mm CLR
21:49 18.5 °C 11.6 °C 1018.5 hPa ENE 3.9 km/h 9.3 km/h 64% 0.0 mm CLR
21:54 18.4 °C 11.4 °C 1018.5 hPa NNE 3.9 km/h 11.1 km/h 64% 0.0 mm CLR
21:59 18.3 °C 11.4 °C 1018.5 hPa NE 8.4 km/h 11.1 km/h 64% 0.0 mm CLR
22:04 18.3 °C 11.4 °C 1018.7 hPa NE 8.4 km/h 9.5 km/h 64% 0.0 mm CLR
22:09 18.3 °C 11.4 °C 1018.7 hPa NE 6.9 km/h 12.2 km/h 64% 0.0 mm CLR
22:15 18.2 °C 11.3 °C 1018.7 hPa NE 8.0 km/h 12.9 km/h 64% 0.0 mm CLR
22:19 18.2 °C 11.3 °C 1018.9 hPa ENE 7.6 km/h 7.4 km/h 64% 0.0 mm CLR
22:25 18.2 °C 11.3 °C 1018.9 hPa NNE 7.6 km/h 11.1 km/h 64% 0.0 mm CLR
22:29 18.1 °C 11.2 °C 1018.9 hPa NNE 6.9 km/h 11.1 km/h 64% 0.0 mm CLR
22:34 17.9 °C 11.0 °C 1019.1 hPa NE 6.9 km/h 11.1 km/h 64% 0.0 mm CLR
22:39 17.8 °C 11.1 °C 1019.1 hPa NE 7.6 km/h 10.3 km/h 65% 0.0 mm CLR
22:45 17.7 °C 11.1 °C 1019.1 hPa NE 8.0 km/h 11.3 km/h 65% 0.0 mm CLR
22:49 17.7 °C 11.3 °C 1019.2 hPa NE 7.6 km/h 9.5 km/h 66% 0.0 mm CLR
22:55 17.6 °C 11.2 °C 1019.2 hPa NE 8.0 km/h 12.9 km/h 66% 0.0 mm CLR
23:00 17.6 °C 11.2 °C 1019.2 hPa NE 8.0 km/h 11.3 km/h 66% 0.0 mm CLR
23:05 17.5 °C 11.1 °C 1019.5 hPa NE 8.0 km/h 11.3 km/h 66% 0.0 mm CLR
23:09 17.4 °C 11.2 °C 1019.5 hPa NE 6.9 km/h 7.4 km/h 67% 0.0 mm CLR
23:14 17.3 °C 11.3 °C 1019.5 hPa NE 6.9 km/h 7.4 km/h 68% 0.0 mm CLR
23:19 17.3 °C 11.3 °C 1019.6 hPa NE 5.8 km/h 9.3 km/h 68% 0.0 mm CLR
23:24 17.2 °C 11.2 °C 1019.6 hPa NE 5.8 km/h 7.4 km/h 68% 0.0 mm CLR
23:29 17.2 °C 11.4 °C 1019.6 hPa NE 5.0 km/h 5.8 km/h 69% 0.0 mm CLR
23:34 17.1 °C 11.4 °C 1019.6 hPa NE 5.0 km/h 9.5 km/h 69% 0.0 mm CLR
23:39 17.1 °C 11.4 °C 1019.6 hPa NE 5.8 km/h 9.3 km/h 69% 0.0 mm CLR
23:44 16.9 °C 11.2 °C 1019.6 hPa NE 5.8 km/h 9.3 km/h 69% 0.0 mm CLR
23:49 16.9 °C 11.4 °C 1019.6 hPa NE 6.4 km/h 11.1 km/h 70% 0.0 mm CLR
23:54 16.9 °C 11.4 °C 1019.6 hPa NE 6.4 km/h 9.3 km/h 70% 0.0 mm CLR
23:59 16.9 °C 11.4 °C 1019.6 hPa ENE 6.9 km/h 11.1 km/h 70% 0.0 mm CLR
Murcia-Puente Tocinos, España
Compliments of Weather Underground - 2.75 mb

La estación de MeteoMurcia.com, publica sus datos en los siguientes proyectos:

Weather Underground PWS IMURCIAP2 Meteoclimatic www.awekas.at

W3Counter
Web Analytics